| time (UTC) | temp F | wind direction | speed MPH | gust MPH | rain 1hr in | rain 24hr in | rain mn in | humidity % | barometer mb |
| 20260508153516 | 61 | 180 | 6.0 | 10.0 | 0.00 | 0.00 | 0.00 | 31 | 1022.5 |
| 20260508152536 | 61 | 135 | 7.0 | 12.0 | 0.00 | 0.00 | 0.00 | 31 | 1022.4 |
| 20260508151516 | 61 | 135 | 7.0 | 10.0 | 0.00 | 0.00 | 0.00 | 31 | 1022.5 |
| 20260508150516 | 62 | 180 | 7.0 | 13.0 | 0.00 | 0.00 | 0.00 | 32 | 1022.4 |
| 20260508145516 | 62 | 158 | 7.0 | 14.0 | 0.00 | 0.00 | 0.00 | 29 | 1022.4 |
| 20260508144516 | 62 | 180 | 7.0 | 14.0 | 0.00 | 0.00 | 0.00 | 32 | 1022.6 |
| 20260508143517 | 62 | 158 | 9.0 | 18.0 | 0.00 | 0.00 | 0.00 | 30 | 1022.6 |
| 20260508142516 | 62 | 180 | 7.0 | 12.0 | 0.00 | 0.00 | 0.00 | 29 | 1022.7 |
| 20260508141516 | 63 | 203 | 6.0 | 10.0 | 0.00 | 0.00 | 0.00 | 29 | 1022.7 |
| 20260508140516 | 63 | 180 | 7.0 | 14.0 | 0.00 | 0.00 | 0.00 | 31 | 1022.7 |
| 20260508135516 | 63 | 135 | 9.0 | 16.0 | 0.00 | 0.00 | 0.00 | 29 | 1022.7 |
| 20260508134516 | 62 | 180 | 7.0 | 16.0 | 0.00 | 0.00 | 0.00 | 30 | 1022.8 |
| 20260508133516 | 62 | 180 | 7.0 | 11.0 | 0.00 | 0.00 | 0.00 | 30 | 1022.8 |
| 20260508132516 | 62 | 180 | 7.0 | 15.0 | 0.00 | 0.00 | 0.00 | 30 | 1022.9 |
| 20260508131536 | 62 | 180 | 7.0 | 16.0 | 0.00 | 0.00 | 0.00 | 29 | 1022.9 |
| 20260508130516 | 63 | 158 | 7.0 | 13.0 | 0.00 | 0.00 | 0.00 | 31 | 1023.0 |
| 20260508125536 | 63 | 180 | 9.0 | 16.0 | 0.00 | 0.00 | 0.00 | 29 | 1023.0 |
| 20260508124537 | 64 | 135 | 8.0 | 15.0 | 0.00 | 0.00 | 0.00 | 30 | 1023.0 |
| 20260508123516 | 63 | 180 | 6.0 | 10.0 | 0.00 | 0.00 | 0.00 | 30 | 1023.1 |
| 20260508122516 | 62 | 135 | 8.0 | 13.0 | 0.00 | 0.00 | 0.00 | 34 | 1023.1 |
| 20260508121516 | 61 | 0 | 7.0 | 14.0 | 0.00 | 0.00 | 0.00 | 31 | 1023.2 |
| 20260508120536 | 62 | 113 | 5.0 | 14.0 | 0.00 | 0.00 | 0.00 | 32 | 1023.2 |
| 20260508115516 | 62 | 180 | 9.0 | 17.0 | 0.00 | 0.00 | 0.00 | 31 | 1023.4 |
| 20260508114536 | 63 | 180 | 7.0 | 17.0 | 0.00 | 0.00 | 0.00 | 32 | 1023.4 |
| 20260508113516 | 62 | 135 | 7.0 | 13.0 | 0.00 | 0.00 | 0.00 | 32 | 1023.4 |
| 20260508112517 | 62 | 180 | 8.0 | 17.0 | 0.00 | 0.00 | 0.00 | 31 | 1023.5 |
| 20260508111516 | 62 | 180 | 10.0 | 19.0 | 0.00 | 0.00 | 0.00 | 31 | 1023.5 |
| 20260508110516 | 61 | 203 | 7.0 | 12.0 | 0.00 | 0.00 | 0.00 | 33 | 1023.5 |
| 20260508105536 | 61 | 203 | 9.0 | 20.0 | 0.00 | 0.00 | 0.00 | 31 | 1023.5 |
| 20260508104516 | 61 | 135 | 8.0 | 14.0 | 0.00 | 0.00 | 0.00 | 33 | 1023.5 |
| 20260508103516 | 61 | 158 | 7.0 | 15.0 | 0.00 | 0.00 | 0.00 | 34 | 1023.6 |
| 20260508102516 | 61 | 135 | 8.0 | 17.0 | 0.00 | 0.00 | 0.00 | 32 | 1023.6 |
| 20260508101516 | 61 | 203 | 7.0 | 13.0 | 0.00 | 0.00 | 0.00 | 34 | 1023.5 |
| 20260508100516 | 60 | 135 | 8.0 | 14.0 | 0.00 | 0.00 | 0.00 | 35 | 1023.6 |
| 20260508095516 | 59 | 135 | 8.0 | 15.0 | 0.00 | 0.00 | 0.00 | 34 | 1023.7 |
| 20260508094516 | 59 | 135 | 6.0 | 14.0 | 0.00 | 0.00 | 0.00 | 37 | 1023.7 |
| 20260508093516 | 59 | 113 | 8.0 | 13.0 | 0.00 | 0.00 | 0.00 | 38 | 1023.7 |
| 20260508092516 | 59 | 180 | 6.0 | 11.0 | 0.00 | 0.00 | 0.00 | 39 | 1024.0 |
| 20260508091516 | 58 | 135 | 8.0 | 18.0 | 0.00 | 0.00 | 0.00 | 39 | 1024.0 |
| 20260508090516 | 58 | 135 | 6.0 | 11.0 | 0.00 | 0.00 | 0.00 | 38 | 1024.0 |
| 20260508085516 | 58 | 180 | 5.0 | 11.0 | 0.00 | 0.00 | 0.00 | 39 | 1024.0 |
| 20260508084516 | 57 | 180 | 6.0 | 15.0 | 0.00 | 0.00 | 0.00 | 40 | 1024.1 |
| 20260508083516 | 56 | 180 | 6.0 | 12.0 | 0.00 | 0.00 | 0.00 | 40 | 1024.1 |
| 20260508082516 | 55 | 135 | 7.0 | 13.0 | 0.00 | 0.00 | 0.00 | 41 | 1024.2 |
| 20260508081516 | 54 | 135 | 5.0 | 10.0 | 0.00 | 0.00 | 0.00 | 43 | 1024.1 |
| 20260508080516 | 53 | 135 | 6.0 | 13.0 | 0.00 | 0.00 | 0.00 | 44 | 1024.1 |
| 20260508075516 | 52 | 135 | 5.0 | 9.0 | 0.00 | 0.00 | 0.00 | 45 | 1024.1 |
| 20260508074516 | 51 | 135 | 2.0 | 4.0 | 0.00 | 0.00 | 0.00 | 48 | 1024.1 |
| 20260508073516 | 50 | 113 | 4.0 | 7.0 | 0.00 | 0.00 | 0.00 | 50 | 1024.1 |
| 20260508072516 | 50 | 113 | 4.0 | 6.0 | 0.00 | 0.00 | 0.00 | 48 | 1024.1 |
| 20260508071516 | 49 | 113 | 4.0 | 10.0 | 0.00 | 0.00 | 0.00 | 47 | 1024.1 |
| 20260508070516 | 48 | 90 | 2.0 | 7.0 | 0.00 | 0.00 | 0.00 | 50 | 1024.0 |
| 20260508065536 | 47 | 113 | 4.0 | 8.0 | 0.00 | 0.00 | 0.00 | 53 | 1024.0 |
| 20260508064536 | 46 | 158 | 2.0 | 4.0 | 0.00 | 0.00 | 0.00 | 51 | 1023.9 |
| 20260508063516 | 46 | 23 | 2.0 | 6.0 | 0.00 | 0.00 | 0.00 | 53 | 1023.9 |
| 20260508062516 | 46 | 68 | 1.0 | 4.0 | 0.00 | 0.00 | 0.00 | 55 | 1023.8 |
| 20260508061516 | 45 | 90 | 2.0 | 4.0 | 0.00 | 0.00 | 0.00 | 58 | 1023.7 |
| 20260508060516 | 43 | 90 | 3.0 | 7.0 | 0.00 | 0.00 | 0.00 | 62 | 1023.6 |
| 20260508055516 | 42 | 90 | 2.0 | 5.0 | 0.00 | 0.00 | 0.00 | 63 | 1023.6 |
| 20260508054516 | 41 | 90 | 3.0 | 7.0 | 0.00 | 0.00 | 0.00 | 66 | 1023.6 |
| 20260508053516 | 40 | 90 | 2.0 | 5.0 | 0.00 | 0.00 | 0.00 | 67 | 1023.6 |
| 20260508052556 | 39 | 90 | 2.0 | 6.0 | 0.00 | 0.00 | 0.00 | 69 | 1023.6 |
| 20260508051516 | 39 | 90 | 2.0 | 5.0 | 0.00 | 0.00 | 0.00 | 70 | 1023.5 |
| 20260508050516 | 37 | 113 | 3.0 | 5.0 | 0.00 | 0.00 | 0.00 | 74 | 1023.3 |
| 20260508045516 | 36 | 90 | 2.0 | 5.0 | 0.00 | 0.00 | 0.00 | 77 | 1023.3 |
| 20260508044516 | 35 | 90 | 2.0 | 3.0 | 0.00 | 0.00 | 0.00 | 80 | 1023.2 |
| 20260508043516 | 34 | 90 | 1.0 | 2.0 | 0.00 | 0.00 | 0.00 | 81 | 1023.1 |
| 20260508042536 | 34 | 0.0 | 1.0 | 0.00 | 0.00 | 0.00 | 81 | 1023.1 | |
| 20260508041516 | 33 | 0.0 | 1.0 | 0.00 | 0.00 | 0.00 | 84 | 1023.1 | |
| 20260508040516 | 31 | 0.0 | 0.0 | 0.00 | 0.00 | 0.00 | 89 | 1022.9 | |
| 20260508035516 | 29 | 0.0 | 0.0 | 0.00 | 0.00 | 0.00 | 88 | 1022.8 | |
| 20260508034516 | 29 | 0.0 | 0.0 | 0.00 | 0.00 | 0.00 | 88 | 1022.7 | |
| 20260508033516 | 28 | 0.0 | 0.0 | 0.00 | 0.00 | 0.00 | 87 | 1022.6 | |
| 20260508032516 | 28 | 0.0 | 0.0 | 0.00 | 0.00 | 0.00 | 87 | 1022.6 | |
| 20260508031516 | 28 | 0.0 | 0.0 | 0.00 | 0.00 | 0.00 | 87 | 1022.6 | |
| 20260508030516 | 28 | 0.0 | 0.0 | 0.00 | 0.00 | 0.00 | 86 | 1022.5 | |
| 20260508025516 | 28 | 0.0 | 0.0 | 0.00 | 0.00 | 0.00 | 86 | 1022.4 | |
| 20260508024516 | 28 | 0.0 | 0.0 | 0.00 | 0.00 | 0.00 | 85 | 1022.3 | |
| 20260508023535 | 28 | 0.0 | 0.0 | 0.00 | 0.00 | 0.00 | 85 | 1022.2 | |
| 20260508021516 | 28 | 0.0 | 1.0 | 0.00 | 0.00 | 0.00 | 84 | 1022.1 | |
| 20260508020556 | 29 | 0.0 | 1.0 | 0.00 | 0.00 | 0.00 | 84 | 1022.0 | |
| 20260508015516 | 29 | 0.0 | 0.0 | 0.00 | 0.00 | 0.00 | 83 | 1021.9 | |
| 20260508014515 | 29 | 0.0 | 1.0 | 0.00 | 0.00 | 0.00 | 83 | 1021.8 | |
| 20260508013516 | 29 | 0.0 | 0.0 | 0.00 | 0.00 | 0.00 | 83 | 1021.7 | |
| 20260508012536 | 29 | 0.0 | 1.0 | 0.00 | 0.00 | 0.00 | 82 | 1021.6 | |
| 20260508011536 | 29 | 0.0 | 0.0 | 0.00 | 0.00 | 0.00 | 82 | 1021.4 | |
| 20260508010516 | 30 | 0.0 | 0.0 | 0.00 | 0.00 | 0.00 | 81 | 1021.4 | |
| 20260508005516 | 30 | 0.0 | 1.0 | 0.00 | 0.00 | 0.00 | 80 | 1021.3 | |
| 20260508004516 | 30 | 0.0 | 0.0 | 0.00 | 0.00 | 0.00 | 80 | 1021.2 | |
| 20260508003515 | 30 | 338 | 1.0 | 1.0 | 0.00 | 0.00 | 0.00 | 80 | 1021.1 |
| 20260508002516 | 30 | 0.0 | 0.0 | 0.00 | 0.00 | 0.00 | 79 | 1021.2 | |
| 20260508001516 | 31 | 0.0 | 1.0 | 0.00 | 0.00 | 0.00 | 78 | 1021.0 | |
| 20260508000516 | 31 | 0.0 | 1.0 | 0.00 | 0.00 | 0.00 | 78 | 1020.9 | |
| 20260507235515 | 31 | 0.0 | 0.0 | 0.00 | 0.00 | 0.00 | 77 | 1020.8 | |
| 20260507234516 | 31 | 0.0 | 0.0 | 0.00 | 0.00 | 0.00 | 76 | 1020.8 | |
| 20260507233555 | 32 | 0.0 | 0.0 | 0.00 | 0.00 | 0.00 | 75 | 1020.7 | |
| 20260507232515 | 32 | 338 | 1.0 | 1.0 | 0.00 | 0.00 | 0.00 | 75 | 1020.6 |
| 20260507231536 | 32 | 338 | 1.0 | 2.0 | 0.00 | 0.00 | 0.00 | 74 | 1020.5 |
| 20260507230516 | 33 | 0.0 | 1.0 | 0.00 | 0.00 | 0.00 | 73 | 1020.4 | |
| 20260507225516 | 33 | 338 | 1.0 | 2.0 | 0.00 | 0.00 | 0.00 | 72 | 1020.4 |
| 20260507224535 | 33 | 0.0 | 0.0 | 0.00 | 0.00 | 0.00 | 71 | 1020.3 | |
| 20260507223515 | 34 | 338 | 1.0 | 2.0 | 0.00 | 0.00 | 0.00 | 70 | 1020.2 |
| 20260507222516 | 34 | 0.0 | 2.0 | 0.00 | 0.00 | 0.00 | 69 | 1020.1 | |
| 20260507221536 | 34 | 45 | 1.0 | 2.0 | 0.00 | 0.00 | 0.00 | 68 | 1020.1 |
| 20260507220515 | 35 | 0.0 | 1.0 | 0.00 | 0.00 | 0.00 | 66 | 1019.9 | |
| 20260507215517 | 35 | 45 | 1.0 | 2.0 | 0.00 | 0.00 | 0.00 | 65 | 1019.9 |
| 20260507214517 | 36 | 0.0 | 1.0 | 0.00 | 0.00 | 0.00 | 64 | 1019.8 | |
| 20260507213517 | 37 | 0.0 | 1.0 | 0.00 | 0.00 | 0.00 | 62 | 1019.9 | |
| 20260507212517 | 37 | 0.0 | 1.0 | 0.00 | 0.00 | 0.00 | 61 | 1019.6 | |
| 20260507211517 | 37 | 0.0 | 1.0 | 0.00 | 0.00 | 0.00 | 59 | 1019.4 | |
| 20260507210517 | 38 | 0.0 | 1.0 | 0.00 | 0.00 | 0.00 | 58 | 1019.3 | |
| 20260507205517 | 38 | 0.0 | 2.0 | 0.00 | 0.00 | 0.00 | 56 | 1019.1 | |
| 20260507204517 | 38 | 90 | 1.0 | 3.0 | 0.00 | 0.00 | 0.00 | 55 | 1019.0 |
| 20260507203517 | 39 | 23 | 1.0 | 2.0 | 0.00 | 0.00 | 0.00 | 56 | 1018.9 |
| 20260507202517 | 40 | 0 | 3.0 | 6.0 | 0.00 | 0.00 | 0.00 | 56 | 1018.9 |
| 20260507201517 | 40 | 0 | 1.0 | 3.0 | 0.00 | 0.00 | 0.00 | 53 | 1018.5 |
| 20260507200517 | 41 | 0.0 | 1.0 | 0.00 | 0.00 | 0.00 | 50 | 1018.5 | |
| 20260507195517 | 42 | 0 | 1.0 | 2.0 | 0.00 | 0.00 | 0.00 | 49 | 1018.4 |
| 20260507194517 | 43 | 0.0 | 2.0 | 0.00 | 0.00 | 0.00 | 45 | 1018.3 | |
| 20260507193517 | 44 | 0.0 | 1.0 | 0.00 | 0.00 | 0.00 | 39 | 1018.1 | |
| 20260507192517 | 46 | 0 | 1.0 | 2.0 | 0.00 | 0.00 | 0.00 | 36 | 1018.0 |
| 20260507191537 | 47 | 0 | 1.0 | 3.0 | 0.00 | 0.00 | 0.00 | 33 | 1017.9 |
| 20260507190517 | 49 | 0.0 | 1.0 | 0.00 | 0.00 | 0.00 | 30 | 1017.7 | |
| 20260507185517 | 50 | 23 | 1.0 | 3.0 | 0.00 | 0.00 | 0.00 | 29 | 1017.6 |
| 20260507184517 | 51 | 23 | 1.0 | 3.0 | 0.00 | 0.00 | 0.00 | 28 | 1017.6 |
| 20260507183517 | 52 | 23 | 2.0 | 4.0 | 0.00 | 0.00 | 0.00 | 27 | 1017.5 |
| 20260507182517 | 53 | 45 | 2.0 | 4.0 | 0.00 | 0.00 | 0.00 | 24 | 1017.4 |
| 20260507181517 | 54 | 45 | 1.0 | 4.0 | 0.00 | 0.00 | 0.00 | 23 | 1017.3 |
| 20260507180517 | 54 | 45 | 2.0 | 4.0 | 0.00 | 0.00 | 0.00 | 24 | 1017.2 |
| 20260507175517 | 55 | 45 | 3.0 | 6.0 | 0.00 | 0.00 | 0.00 | 23 | 1017.0 |
| 20260507174517 | 55 | 23 | 3.0 | 5.0 | 0.00 | 0.00 | 0.00 | 23 | 1016.9 |
| 20260507173517 | 56 | 23 | 2.0 | 4.0 | 0.00 | 0.00 | 0.00 | 21 | 1016.8 |
| 20260507172517 | 57 | 23 | 3.0 | 5.0 | 0.00 | 0.00 | 0.00 | 19 | 1016.7 |
| 20260507171537 | 57 | 0 | 2.0 | 4.0 | 0.00 | 0.00 | 0.00 | 21 | 1016.6 |
| 20260507170537 | 57 | 23 | 4.0 | 7.0 | 0.00 | 0.00 | 0.00 | 21 | 1016.6 |
| 20260507165517 | 58 | 23 | 4.0 | 7.0 | 0.00 | 0.00 | 0.00 | 22 | 1016.4 |
| 20260507164517 | 58 | 338 | 2.0 | 5.0 | 0.00 | 0.00 | 0.00 | 20 | 1016.3 |
| 20260507163517 | 57 | 315 | 2.0 | 6.0 | 0.00 | 0.00 | 0.00 | 21 | 1016.3 |
| 20260507162517 | 57 | 315 | 4.0 | 6.0 | 0.00 | 0.00 | 0.00 | 22 | 1016.3 |
| 20260507161517 | 57 | 0 | 5.0 | 9.0 | 0.00 | 0.00 | 0.00 | 23 | 1016.2 |
| 20260507160517 | 57 | 315 | 2.0 | 6.0 | 0.00 | 0.00 | 0.00 | 23 | 1016.0 |
| 20260507155537 | 57 | 315 | 3.0 | 7.0 | 0.00 | 0.00 | 0.00 | 22 | 1016.0 |
| 20260507154517 | 57 | 23 | 1.0 | 2.0 | 0.00 | 0.00 | 0.00 | 21 | 1016.0 |